Time,TemperatureF,DewpointF,PressureIn,WindDirection,WindDirectionDegrees,WindSpeedMPH,WindSpeedGustMPH,Humidity,HourlyPrecipIn,Conditions,Clouds,dailyrainin,SolarRadiationWatts/m^2,SoftwareType,DateUTC
2013-06-01 00:01:00,72.5,62.2,29.88,SSE,153,0.0,0.0,70,0.00,,,0.00,0,Wunderground v.1.15,2013-06-01 04:01:00,
2013-06-01 00:02:00,72.5,62.2,29.88,SSE,153,0.0,0.0,70,0.00,,,0.00,0,Wunderground v.1.15,2013-06-01 04:02:00,
2013-06-01 00:03:00,72.5,62.2,29.88,SSE,153,0.0,0.0,70,0.00,,,0.00,0,Wunderground v.1.15,2013-06-01 04:03:00,
2013-06-01 00:06:00,72.3,62.0,29.88,SSE,153,0.0,0.0,70,0.00,,,0.00,0,Wunderground v.1.15,2013-06-01 04:06:00,
2013-06-01 00:07:00,72.3,62.0,29.88,SSE,153,0.0,0.0,70,0.00,,,0.00,0,Wunderground v.1.15,2013-06-01 04:07:00,
2013-06-01 00:12:00,72.1,62.2,29.88,SSE,153,0.0,0.0,71,0.00,,,0.00,0,Wunderground v.1.15,2013-06-01 04:12:00,
2013-06-01 00:18:00,72.1,61.8,29.88,SSE,153,0.0,0.0,70,0.00,,,0.00,0,Wunderground v.1.15,2013-06-01 04:18:00,
2013-06-01 00:23:00,72.0,62.1,29.88,SSE,153,0.0,0.0,71,0.00,,,0.00,0,Wunderground v.1.15,2013-06-01 04:23:00,
2013-06-01 00:29:00,72.0,62.1,29.88,SSE,153,0.0,0.0,71,0.00,,,0.00,0,Wunderground v.1.15,2013-06-01 04:29:00,
2013-06-01 00:34:00,72.0,62.1,29.88,SSE,153,0.0,1.0,71,0.00,,,0.00,0,Wunderground v.1.15,2013-06-01 04:34:00,
2013-06-01 00:40:00,72.0,62.5,29.88,SSE,153,0.0,0.0,72,0.00,,,0.00,0,Wunderground v.1.15,2013-06-01 04:40:00,
2013-06-01 00:46:00,71.8,62.7,29.87,SSE,153,0.0,0.0,73,0.00,,,0.00,0,Wunderground v.1.15,2013-06-01 04:46:00,
2013-06-01 00:52:00,71.8,62.7,29.87,SSE,155,0.0,0.0,73,0.00,,,0.00,0,Wunderground v.1.15,2013-06-01 04:52:00,
2013-06-01 00:57:00,71.8,62.7,29.87,SSE,155,0.0,0.0,73,0.00,,,0.00,0,Wunderground v.1.15,2013-06-01 04:57:00,
2013-06-01 01:03:00,71.6,62.5,29.87,SSE,155,0.0,0.0,73,0.00,,,0.00,0,Wunderground v.1.15,2013-06-01 05:03:00,
2013-06-01 01:09:00,71.3,62.6,29.87,SSE,155,0.0,0.0,74,0.00,,,0.00,0,Wunderground v.1.15,2013-06-01 05:09:00,
2013-06-01 01:15:00,71.1,62.4,29.86,SSE,155,0.0,0.0,74,0.00,,,0.00,0,Wunderground v.1.15,2013-06-01 05:15:00,
2013-06-01 01:20:00,71.1,62.8,29.86,SSE,155,0.0,0.0,75,0.00,,,0.00,0,Wunderground v.1.15,2013-06-01 05:20:00,
2013-06-01 01:26:00,70.9,63.0,29.86,SSE,155,0.0,1.0,76,0.00,,,0.00,0,Wunderground v.1.15,2013-06-01 05:26:00,
2013-06-01 01:32:00,70.8,62.9,29.86,SSE,155,0.0,0.0,76,0.00,,,0.00,0,Wunderground v.1.15,2013-06-01 05:32:00,
2013-06-01 01:38:00,70.6,62.7,29.86,SSE,155,0.0,0.0,76,0.00,,,0.00,0,Wunderground v.1.15,2013-06-01 05:38:00,
2013-06-01 01:43:00,70.6,62.7,29.86,SSE,155,0.0,0.0,76,0.00,,,0.00,0,Wunderground v.1.15,2013-06-01 05:43:00,
2013-06-01 01:49:00,70.4,62.8,29.86,SSE,155,0.0,0.0,77,0.00,,,0.00,0,Wunderground v.1.15,2013-06-01 05:49:00,
2013-06-01 01:54:00,70.3,62.7,29.86,SSE,155,0.0,0.0,77,0.00,,,0.00,0,Wunderground v.1.15,2013-06-01 05:54:00,
2013-06-01 02:00:00,70.3,62.7,29.86,SSE,155,0.0,0.0,77,0.00,,,0.00,0,Wunderground v.1.15,2013-06-01 06:00:00,
2013-06-01 02:06:00,70.1,62.9,29.86,SSE,155,0.0,0.0,78,0.00,,,0.00,0,Wunderground v.1.15,2013-06-01 06:06:00,
2013-06-01 02:11:00,70.1,62.9,29.86,SSE,155,0.0,0.0,78,0.00,,,0.00,0,Wunderground v.1.15,2013-06-01 06:11:00,
2013-06-01 02:17:00,69.9,62.7,29.86,SSE,155,0.0,0.0,78,0.00,,,0.00,0,Wunderground v.1.15,2013-06-01 06:17:00,
2013-06-01 02:22:00,69.8,62.6,29.86,SSE,155,0.0,0.0,78,0.00,,,0.00,0,Wunderground v.1.15,2013-06-01 06:22:00,
2013-06-01 02:28:00,69.6,62.8,29.86,SSE,155,0.0,2.0,79,0.00,,,0.00,0,Wunderground v.1.15,2013-06-01 06:28:00,
2013-06-01 02:34:00,69.6,62.8,29.86,SSE,155,0.0,0.0,79,0.00,,,0.00,0,Wunderground v.1.15,2013-06-01 06:34:00,
2013-06-01 02:39:00,69.6,62.8,29.86,SSE,155,0.0,0.0,79,0.00,,,0.00,0,Wunderground v.1.15,2013-06-01 06:39:00,
2013-06-01 02:45:00,69.6,63.2,29.86,SSE,155,0.0,0.0,80,0.00,,,0.00,0,Wunderground v.1.15,2013-06-01 06:45:00,
2013-06-01 02:51:00,69.6,63.2,29.86,SSE,155,0.0,0.0,80,0.00,,,0.00,0,Wunderground v.1.15,2013-06-01 06:51:00,
2013-06-01 02:56:00,69.4,62.6,29.86,SSE,155,0.0,0.0,79,0.00,,,0.00,0,Wunderground v.1.15,2013-06-01 06:56:00,
2013-06-01 03:02:00,69.4,62.6,29.86,SSE,155,0.0,0.0,79,0.00,,,0.00,0,Wunderground v.1.15,2013-06-01 07:02:00,
2013-06-01 03:08:00,69.4,62.6,29.86,SSE,155,0.0,0.0,79,0.00,,,0.00,0,Wunderground v.1.15,2013-06-01 07:08:00,
2013-06-01 03:13:00,69.4,62.6,29.86,SSE,155,0.0,0.0,79,0.00,,,0.00,0,Wunderground v.1.15,2013-06-01 07:13:00,
2013-06-01 03:18:00,69.3,62.9,29.86,SSE,155,0.0,0.0,80,0.00,,,0.00,0,Wunderground v.1.15,2013-06-01 07:18:00,
2013-06-01 03:23:00,69.3,62.9,29.86,SSE,155,0.0,0.0,80,0.00,,,0.00,0,Wunderground v.1.15,2013-06-01 07:23:00,
2013-06-01 03:29:00,69.1,62.7,29.86,SSE,155,0.0,1.0,80,0.00,,,0.00,0,Wunderground v.1.15,2013-06-01 07:29:00,
2013-06-01 03:34:00,68.9,62.5,29.86,SSE,155,0.0,0.0,80,0.00,,,0.00,0,Wunderground v.1.15,2013-06-01 07:34:00,
2013-06-01 03:40:00,68.8,62.7,29.86,SSE,158,0.0,0.0,81,0.00,,,0.00,0,Wunderground v.1.15,2013-06-01 07:40:00,
2013-06-01 03:46:00,68.8,62.7,29.86,SSE,158,0.0,0.0,81,0.00,,,0.00,0,Wunderground v.1.15,2013-06-01 07:46:00,
2013-06-01 03:51:00,68.8,62.7,29.86,SSE,158,0.0,0.0,81,0.00,,,0.00,0,Wunderground v.1.15,2013-06-01 07:51:00,
2013-06-01 03:57:00,68.6,62.5,29.86,SSE,158,0.0,0.0,81,0.00,,,0.00,0,Wunderground v.1.15,2013-06-01 07:57:00,
2013-06-01 04:03:00,68.4,62.3,29.86,SSE,158,0.0,0.0,81,0.00,,,0.00,0,Wunderground v.1.15,2013-06-01 08:03:00,
2013-06-01 04:09:00,68.3,62.6,29.86,SSE,158,0.0,0.0,82,0.00,,,0.00,0,Wunderground v.1.15,2013-06-01 08:09:00,
2013-06-01 04:15:00,68.1,62.4,29.86,SSE,158,0.0,0.0,82,0.00,,,0.00,0,Wunderground v.1.15,2013-06-01 08:15:00,
2013-06-01 04:20:00,67.9,62.2,29.86,SSE,158,0.0,0.0,82,0.00,,,0.00,0,Wunderground v.1.15,2013-06-01 08:20:00,
2013-06-01 04:26:00,67.8,62.1,29.86,SSE,158,0.0,0.0,82,0.00,,,0.00,0,Wunderground v.1.15,2013-06-01 08:26:00,
2013-06-01 04:32:00,67.6,62.3,29.86,South,183,0.0,0.0,83,0.00,,,0.00,0,Wunderground v.1.15,2013-06-01 08:32:00,
2013-06-01 04:37:00,67.6,62.3,29.86,South,184,1.0,1.0,83,0.00,,,0.00,0,Wunderground v.1.15,2013-06-01 08:37:00,
2013-06-01 04:43:00,67.4,62.1,29.86,South,184,0.0,0.0,83,0.00,,,0.00,0,Wunderground v.1.15,2013-06-01 08:43:00,
2013-06-01 04:49:00,67.3,62.0,29.87,South,184,0.0,0.0,83,0.00,,,0.00,0,Wunderground v.1.15,2013-06-01 08:49:00,
2013-06-01 04:54:00,67.3,62.0,29.87,South,184,0.0,0.0,83,0.00,,,0.00,0,Wunderground v.1.15,2013-06-01 08:54:00,
2013-06-01 05:00:00,67.1,62.1,29.88,South,184,0.0,0.0,84,0.00,,,0.00,0,Wunderground v.1.15,2013-06-01 09:00:00,
2013-06-01 05:06:00,67.1,62.1,29.88,South,184,0.0,0.0,84,0.00,,,0.00,0,Wunderground v.1.15,2013-06-01 09:06:00,
2013-06-01 05:11:00,67.1,62.1,29.88,South,184,0.0,0.0,84,0.00,,,0.00,0,Wunderground v.1.15,2013-06-01 09:11:00,
2013-06-01 05:16:00,66.8,61.8,29.88,South,184,0.0,0.0,84,0.00,,,0.00,0,Wunderground v.1.15,2013-06-01 09:16:00,
2013-06-01 05:22:00,66.6,61.9,29.88,South,184,0.0,0.0,85,0.00,,,0.00,5,Wunderground v.1.15,2013-06-01 09:22:00,
2013-06-01 05:27:00,66.4,61.8,29.88,South,184,0.0,0.0,85,0.00,,,0.00,7,Wunderground v.1.15,2013-06-01 09:27:00,
2013-06-01 05:33:00,66.3,61.7,29.88,South,184,0.0,0.0,85,0.00,,,0.00,11,Wunderground v.1.15,2013-06-01 09:33:00,
2013-06-01 05:38:00,66.3,61.7,29.88,South,184,0.0,1.0,85,0.00,,,0.00,12,Wunderground v.1.15,2013-06-01 09:38:00,
2013-06-01 05:44:00,66.3,62.0,29.88,South,184,0.0,0.0,86,0.00,,,0.00,14,Wunderground v.1.15,2013-06-01 09:44:00,
2013-06-01 05:50:00,66.1,61.8,29.88,South,184,0.0,0.0,86,0.00,,,0.00,16,Wunderground v.1.15,2013-06-01 09:50:00,
2013-06-01 05:55:00,66.1,61.8,29.88,South,184,0.0,0.0,86,0.00,,,0.00,18,Wunderground v.1.15,2013-06-01 09:55:00,
2013-06-01 06:01:00,66.1,61.8,29.88,South,184,0.0,0.0,86,0.00,,,0.00,19,Wunderground v.1.15,2013-06-01 10:01:00,
2013-06-01 06:07:00,66.3,62.0,29.88,South,184,0.0,0.0,86,0.00,,,0.00,21,Wunderground v.1.15,2013-06-01 10:07:00,
2013-06-01 06:13:00,66.3,62.0,29.88,South,184,0.0,0.0,86,0.00,,,0.00,26,Wunderground v.1.15,2013-06-01 10:13:00,
2013-06-01 06:18:00,66.3,62.0,29.89,South,184,0.0,0.0,86,0.00,,,0.00,33,Wunderground v.1.15,2013-06-01 10:18:00,
2013-06-01 06:24:00,66.4,62.1,29.89,South,184,0.0,0.0,86,0.00,,,0.00,37,Wunderground v.1.15,2013-06-01 10:24:00,
2013-06-01 06:29:00,66.6,62.6,29.89,South,184,0.0,0.0,87,0.00,,,0.00,39,Wunderground v.1.15,2013-06-01 10:29:00,
2013-06-01 06:35:00,66.8,62.8,29.89,South,184,0.0,0.0,87,0.00,,,0.00,44,Wunderground v.1.15,2013-06-01 10:35:00,
2013-06-01 06:41:00,66.9,62.9,29.89,South,184,0.0,0.0,87,0.00,,,0.00,46,Wunderground v.1.15,2013-06-01 10:41:00,
2013-06-01 06:46:00,67.1,63.1,29.89,South,184,0.0,0.0,87,0.00,,,0.00,49,Wunderground v.1.15,2013-06-01 10:46:00,
2013-06-01 06:52:00,67.1,62.8,29.89,South,184,0.0,0.0,86,0.00,,,0.00,49,Wunderground v.1.15,2013-06-01 10:52:00,
2013-06-01 06:58:00,67.3,63.3,29.89,South,184,0.0,0.0,87,0.00,,,0.00,51,Wunderground v.1.15,2013-06-01 10:58:00,
2013-06-01 07:03:00,67.4,63.4,29.89,South,184,0.0,0.0,87,0.00,,,0.00,51,Wunderground v.1.15,2013-06-01 11:03:00,
2013-06-01 07:09:00,67.8,63.8,29.89,South,184,0.0,0.0,87,0.00,,,0.00,54,Wunderground v.1.15,2013-06-01 11:09:00,
2013-06-01 07:15:00,68.1,64.1,29.88,South,184,0.0,0.0,87,0.00,,,0.00,56,Wunderground v.1.15,2013-06-01 11:15:00,
2013-06-01 07:21:00,68.4,64.4,29.88,South,184,0.0,0.0,87,0.00,,,0.00,60,Wunderground v.1.15,2013-06-01 11:21:00,
2013-06-01 07:26:00,68.6,64.6,29.88,South,184,0.0,0.0,87,0.00,,,0.00,63,Wunderground v.1.15,2013-06-01 11:26:00,
2013-06-01 07:32:00,69.1,65.1,29.88,South,184,0.0,0.0,87,0.00,,,0.00,70,Wunderground v.1.15,2013-06-01 11:32:00,
2013-06-01 07:37:00,69.4,65.4,29.88,South,188,0.0,3.0,87,0.00,,,0.00,69,Wunderground v.1.15,2013-06-01 11:37:00,
2013-06-01 07:43:00,69.8,65.4,29.88,South,188,0.0,0.0,86,0.00,,,0.00,70,Wunderground v.1.15,2013-06-01 11:43:00,
2013-06-01 07:49:00,70.3,65.2,29.88,South,188,0.0,2.0,84,0.00,,,0.00,77,Wunderground v.1.15,2013-06-01 11:49:00,
2013-06-01 07:54:00,70.6,64.8,29.88,South,188,0.0,0.0,82,0.00,,,0.00,79,Wunderground v.1.15,2013-06-01 11:54:00,
2013-06-01 08:00:00,71.3,64.8,29.90,South,188,0.0,0.0,80,0.00,,,0.00,83,Wunderground v.1.15,2013-06-01 12:00:00,
2013-06-01 08:06:00,71.6,64.7,29.90,SE,139,0.0,2.0,79,0.00,,,0.00,83,Wunderground v.1.15,2013-06-01 12:06:00,
2013-06-01 08:11:00,72.1,64.9,29.90,SE,124,0.0,0.0,78,0.00,,,0.00,95,Wunderground v.1.15,2013-06-01 12:11:00,
2013-06-01 08:17:00,72.7,64.7,29.90,East,101,0.0,2.0,76,0.00,,,0.00,97,Wunderground v.1.15,2013-06-01 12:17:00,
2013-06-01 08:23:00,73.0,64.6,29.90,SW,215,0.0,1.0,75,0.00,,,0.00,100,Wunderground v.1.15,2013-06-01 12:23:00,
2013-06-01 08:28:00,73.5,64.3,29.90,SW,214,0.0,1.0,73,0.00,,,0.00,107,Wunderground v.1.15,2013-06-01 12:28:00,
2013-06-01 08:34:00,74.2,65.0,29.90,SSW,203,0.0,0.0,73,0.00,,,0.00,373,Wunderground v.1.15,2013-06-01 12:34:00,
2013-06-01 08:39:00,74.9,64.9,29.90,SSW,212,0.0,1.0,71,0.00,,,0.00,513,Wunderground v.1.15,2013-06-01 12:39:00,
2013-06-01 08:45:00,76.0,65.1,29.90,SSW,212,0.0,0.0,69,0.00,,,0.00,545,Wunderground v.1.15,2013-06-01 12:45:00,
2013-06-01 08:51:00,77.0,65.6,29.90,South,172,0.0,0.0,68,0.00,,,0.00,555,Wunderground v.1.15,2013-06-01 12:51:00,
2013-06-01 08:56:00,77.9,64.3,29.90,SW,229,0.0,7.0,63,0.00,,,0.00,575,Wunderground v.1.15,2013-06-01 12:56:00,
2013-06-01 09:02:00,78.8,65.1,29.89,SSW,210,0.0,1.0,63,0.00,,,0.00,596,Wunderground v.1.15,2013-06-01 13:02:00,
2013-06-01 09:08:00,79.9,65.7,29.89,SE,136,0.0,1.0,62,0.00,,,0.00,626,Wunderground v.1.15,2013-06-01 13:08:00,
2013-06-01 09:14:00,80.9,66.2,29.88,SE,136,0.0,1.0,61,0.00,,,0.00,633,Wunderground v.1.15,2013-06-01 13:14:00,
2013-06-01 09:19:00,81.6,66.4,29.88,SE,136,0.0,1.0,60,0.00,,,0.00,643,Wunderground v.1.15,2013-06-01 13:19:00,
2013-06-01 09:25:00,82.2,66.0,29.88,South,173,0.0,0.0,58,0.00,,,0.00,666,Wunderground v.1.15,2013-06-01 13:25:00,
2013-06-01 09:31:00,82.6,66.8,29.88,ESE,106,0.0,0.0,59,0.00,,,0.00,673,Wunderground v.1.15,2013-06-01 13:31:00,
2013-06-01 09:36:00,82.8,66.0,29.88,South,191,0.0,0.0,57,0.00,,,0.00,687,Wunderground v.1.15,2013-06-01 13:36:00,
2013-06-01 09:42:00,83.4,65.5,29.88,South,191,0.0,0.0,55,0.00,,,0.00,715,Wunderground v.1.15,2013-06-01 13:42:00,
2013-06-01 09:47:00,83.6,66.2,29.88,SSW,200,0.0,0.0,56,0.00,,,0.00,726,Wunderground v.1.15,2013-06-01 13:47:00,
2013-06-01 09:53:00,83.8,67.4,29.88,WNW,290,0.0,0.0,58,0.00,,,0.00,745,Wunderground v.1.15,2013-06-01 13:53:00,
2013-06-01 09:58:00,84.1,68.2,29.88,WSW,252,0.0,0.0,59,0.00,,,0.00,754,Wunderground v.1.15,2013-06-01 13:58:00,
2013-06-01 10:04:00,84.9,67.5,29.86,WSW,252,0.0,0.0,56,0.00,,,0.00,766,Wunderground v.1.15,2013-06-01 14:04:00,
2013-06-01 10:10:00,84.9,66.4,29.86,WSW,252,0.0,0.0,54,0.00,,,0.00,780,Wunderground v.1.15,2013-06-01 14:10:00,
2013-06-01 10:15:00,85.3,67.8,29.86,SSW,202,0.0,0.0,56,0.00,,,0.00,788,Wunderground v.1.15,2013-06-01 14:15:00,
2013-06-01 10:20:00,85.5,67.0,29.86,South,181,0.0,0.0,54,0.00,,,0.00,798,Wunderground v.1.15,2013-06-01 14:20:00,
2013-06-01 10:26:00,85.9,65.7,29.86,WSW,243,0.0,0.0,51,0.00,,,0.00,816,Wunderground v.1.15,2013-06-01 14:26:00,
2013-06-01 10:32:00,86.5,66.2,29.85,SW,232,0.0,0.0,51,0.00,,,0.00,831,Wunderground v.1.15,2013-06-01 14:32:00,
2013-06-01 10:38:00,87.0,67.8,29.85,South,174,0.0,3.0,53,0.00,,,0.00,840,Wunderground v.1.15,2013-06-01 14:38:00,
2013-06-01 10:43:00,87.4,68.2,29.85,South,184,0.0,2.0,53,0.00,,,0.00,842,Wunderground v.1.15,2013-06-01 14:43:00,
2013-06-01 10:49:00,87.6,66.7,29.85,West,269,0.0,2.0,50,0.00,,,0.00,846,Wunderground v.1.15,2013-06-01 14:49:00,
2013-06-01 10:54:00,88.0,67.0,29.85,WSW,255,0.0,0.0,50,0.00,,,0.00,861,Wunderground v.1.15,2013-06-01 14:54:00,
2013-06-01 11:00:00,88.0,67.6,29.85,NNW,330,0.0,0.0,51,0.00,,,0.00,824,Wunderground v.1.15,2013-06-01 15:00:00,
2013-06-01 11:06:00,88.2,66.6,29.85,SSW,198,0.0,0.0,49,0.00,,,0.00,877,Wunderground v.1.15,2013-06-01 15:06:00,
2013-06-01 11:11:00,88.0,67.6,29.85,SSW,199,0.0,0.0,51,0.00,,,0.00,874,Wunderground v.1.15,2013-06-01 15:11:00,
2013-06-01 11:17:00,88.4,67.4,29.84,SE,129,0.0,0.0,50,0.00,,,0.00,817,Wunderground v.1.15,2013-06-01 15:17:00,
2013-06-01 11:22:00,88.6,67.0,29.84,SSE,165,0.0,1.0,49,0.00,,,0.00,893,Wunderground v.1.15,2013-06-01 15:22:00,
2013-06-01 11:28:00,88.6,67.0,29.84,SW,226,0.0,4.0,49,0.00,,,0.00,904,Wunderground v.1.15,2013-06-01 15:28:00,
2013-06-01 11:33:00,88.8,67.2,29.84,South,174,0.0,3.0,49,0.00,,,0.00,896,Wunderground v.1.15,2013-06-01 15:33:00,
2013-06-01 11:39:00,88.8,66.0,29.84,South,174,0.0,3.0,47,0.00,,,0.00,893,Wunderground v.1.15,2013-06-01 15:39:00,
2013-06-01 11:45:00,88.4,67.4,29.84,SE,138,0.0,0.0,50,0.00,,,0.00,925,Wunderground v.1.15,2013-06-01 15:45:00,
2013-06-01 11:50:00,88.8,67.8,29.84,SE,137,0.0,0.0,50,0.00,,,0.00,919,Wunderground v.1.15,2013-06-01 15:50:00,
2013-06-01 11:56:00,89.0,67.4,29.84,ESE,120,0.0,0.0,49,0.00,,,0.00,923,Wunderground v.1.15,2013-06-01 15:56:00,
2013-06-01 12:01:00,89.0,67.4,29.83,West,275,0.0,0.0,49,0.00,,,0.00,930,Wunderground v.1.15,2013-06-01 16:01:00,
2013-06-01 12:07:00,89.0,67.9,29.83,South,179,0.0,1.0,50,0.00,,,0.00,933,Wunderground v.1.15,2013-06-01 16:07:00,
2013-06-01 12:13:00,88.4,68.0,29.83,SW,228,0.0,2.0,51,0.00,,,0.00,940,Wunderground v.1.15,2013-06-01 16:13:00,
2013-06-01 12:18:00,88.8,68.9,29.83,South,184,0.0,2.0,52,0.00,,,0.00,933,Wunderground v.1.15,2013-06-01 16:18:00,
2013-06-01 12:24:00,89.3,68.2,29.83,ESE,122,0.0,1.0,50,0.00,,,0.00,958,Wunderground v.1.15,2013-06-01 16:24:00,
2013-06-01 12:29:00,89.7,66.8,29.83,South,180,0.0,3.0,47,0.00,,,0.00,916,Wunderground v.1.15,2013-06-01 16:29:00,
2013-06-01 12:35:00,89.7,69.2,29.83,SE,140,1.0,2.0,51,0.00,,,0.00,939,Wunderground v.1.15,2013-06-01 16:35:00,
2013-06-01 12:41:00,90.3,66.7,29.83,West,271,0.0,0.0,46,0.00,,,0.00,928,Wunderground v.1.15,2013-06-01 16:41:00,
2013-06-01 12:47:00,91.0,68.6,29.82,ESE,117,0.0,0.0,48,0.00,,,0.00,946,Wunderground v.1.15,2013-06-01 16:47:00,
2013-06-01 12:52:00,90.7,67.1,29.82,NE,47,1.0,1.0,46,0.00,,,0.00,946,Wunderground v.1.15,2013-06-01 16:52:00,
2013-06-01 12:57:00,90.5,69.3,29.82,SW,214,0.0,1.0,50,0.00,,,0.00,962,Wunderground v.1.15,2013-06-01 16:57:00,
2013-06-01 13:03:00,89.9,67.6,29.81,SSW,199,0.0,1.0,48,0.00,,,0.00,960,Wunderground v.1.15,2013-06-01 17:03:00,
2013-06-01 13:09:00,89.9,69.9,29.81,SSE,148,0.0,1.0,52,0.00,,,0.00,951,Wunderground v.1.15,2013-06-01 17:09:00,
2013-06-01 13:14:00,90.5,67.5,29.81,South,174,0.0,1.0,47,0.00,,,0.00,940,Wunderground v.1.15,2013-06-01 17:14:00,
2013-06-01 13:20:00,91.0,68.0,29.81,East,93,0.0,0.0,47,0.00,,,0.00,935,Wunderground v.1.15,2013-06-01 17:20:00,
2013-06-01 13:25:00,90.3,67.9,29.81,SSW,205,0.0,4.0,48,0.00,,,0.00,926,Wunderground v.1.15,2013-06-01 17:25:00,
2013-06-01 13:31:00,89.9,68.8,29.80,SW,224,0.0,3.0,50,0.00,,,0.00,962,Wunderground v.1.15,2013-06-01 17:31:00,
2013-06-01 13:37:00,89.9,65.1,29.80,SE,146,0.0,3.0,44,0.00,,,0.00,1004,Wunderground v.1.15,2013-06-01 17:37:00,
2013-06-01 13:42:00,89.5,66.6,29.80,SE,124,0.0,0.0,47,0.00,,,0.00,292,Wunderground v.1.15,2013-06-01 17:42:00,
2013-06-01 13:48:00,89.7,69.2,29.80,SE,124,0.0,0.0,51,0.00,,,0.00,991,Wunderground v.1.15,2013-06-01 17:48:00,
2013-06-01 13:53:00,89.9,68.8,29.80,East,87,0.0,0.0,50,0.00,,,0.00,958,Wunderground v.1.15,2013-06-01 17:53:00,
2013-06-01 13:58:00,90.1,67.2,29.80,SW,233,0.0,1.0,47,0.00,,,0.00,919,Wunderground v.1.15,2013-06-01 17:58:00,
2013-06-01 14:04:00,90.5,68.1,29.78,WSW,258,0.0,0.0,48,0.00,,,0.00,902,Wunderground v.1.15,2013-06-01 18:04:00,
2013-06-01 14:10:00,91.2,67.5,29.78,ESE,108,0.0,1.0,46,0.00,,,0.00,209,Wunderground v.1.15,2013-06-01 18:10:00,
2013-06-01 14:16:00,90.5,65.6,29.79,NNW,342,0.0,1.0,44,0.00,,,0.00,171,Wunderground v.1.15,2013-06-01 18:16:00,
2013-06-01 14:22:00,89.5,68.4,29.79,SSW,206,0.0,1.0,50,0.00,,,0.00,262,Wunderground v.1.15,2013-06-01 18:22:00,
2013-06-01 14:27:00,88.6,65.2,29.79,West,269,0.0,5.0,46,0.00,,,0.00,334,Wunderground v.1.15,2013-06-01 18:27:00,
2013-06-01 14:33:00,89.3,67.6,29.79,SSW,195,0.0,0.0,49,0.00,,,0.00,1042,Wunderground v.1.15,2013-06-01 18:33:00,
2013-06-01 14:38:00,90.1,69.0,29.79,South,172,0.0,0.0,50,0.00,,,0.00,944,Wunderground v.1.15,2013-06-01 18:38:00,
2013-06-01 14:44:00,90.1,66.5,29.79,South,177,0.0,2.0,46,0.00,,,0.00,323,Wunderground v.1.15,2013-06-01 18:44:00,
2013-06-01 14:50:00,89.5,66.6,29.79,WNW,302,1.0,1.0,47,0.00,,,0.00,371,Wunderground v.1.15,2013-06-01 18:50:00,
2013-06-01 14:55:00,88.4,66.8,29.79,NNE,20,1.0,1.0,49,0.00,,,0.00,265,Wunderground v.1.15,2013-06-01 18:55:00,
2013-06-01 15:01:00,86.3,66.6,29.80,South,172,1.0,1.0,52,0.00,,,0.00,677,Wunderground v.1.15,2013-06-01 19:01:00,
2013-06-01 15:07:00,85.9,67.3,29.80,SE,133,0.0,3.0,54,0.00,,,0.00,893,Wunderground v.1.15,2013-06-01 19:07:00,
2013-06-01 15:13:00,86.3,66.6,29.80,SE,131,0.0,0.0,52,0.00,,,0.00,468,Wunderground v.1.15,2013-06-01 19:13:00,
2013-06-01 15:19:00,86.3,65.5,29.80,SE,132,0.0,0.0,50,0.00,,,0.00,262,Wunderground v.1.15,2013-06-01 19:19:00,
2013-06-01 15:25:00,85.7,65.5,29.80,SSE,149,0.0,0.0,51,0.00,,,0.00,334,Wunderground v.1.15,2013-06-01 19:25:00,
2013-06-01 15:31:00,85.1,66.0,29.81,WSW,248,0.0,1.0,53,0.00,,,0.00,366,Wunderground v.1.15,2013-06-01 19:31:00,
2013-06-01 15:36:00,85.1,65.5,29.81,SSE,153,0.0,1.0,52,0.00,,,0.00,211,Wunderground v.1.15,2013-06-01 19:36:00,
2013-06-01 15:41:00,85.3,65.1,29.81,SSE,153,0.0,0.0,51,0.00,,,0.00,292,Wunderground v.1.15,2013-06-01 19:41:00,
2013-06-01 15:47:00,85.5,65.3,29.80,East,93,0.0,1.0,51,0.00,,,0.00,745,Wunderground v.1.15,2013-06-01 19:47:00,
2013-06-01 15:52:00,86.1,65.3,29.80,SE,134,1.0,2.0,50,0.00,,,0.00,701,Wunderground v.1.15,2013-06-01 19:52:00,
2013-06-01 15:58:00,85.9,66.2,29.80,SW,229,1.0,2.0,52,0.00,,,0.00,621,Wunderground v.1.15,2013-06-01 19:58:00,
2013-06-01 16:03:00,85.9,66.8,29.80,SSE,165,0.0,3.0,53,0.00,,,0.00,582,Wunderground v.1.15,2013-06-01 20:03:00,
2013-06-01 16:09:00,86.1,66.4,29.80,South,172,0.0,3.0,52,0.00,,,0.00,635,Wunderground v.1.15,2013-06-01 20:09:00,
2013-06-01 16:14:00,86.3,65.5,29.80,SE,133,0.0,0.0,50,0.00,,,0.00,619,Wunderground v.1.15,2013-06-01 20:14:00,
2013-06-01 16:20:00,87.0,67.8,29.80,WSW,254,0.0,0.0,53,0.00,,,0.00,582,Wunderground v.1.15,2013-06-01 20:20:00,
2013-06-01 16:26:00,87.2,68.0,29.80,ESE,120,0.0,0.0,53,0.00,,,0.00,274,Wunderground v.1.15,2013-06-01 20:26:00,
2013-06-01 16:31:00,87.0,66.7,29.79,SW,214,0.0,0.0,51,0.00,,,0.00,216,Wunderground v.1.15,2013-06-01 20:31:00,
2013-06-01 16:37:00,86.1,67.5,29.79,SW,214,0.0,0.0,54,0.00,,,0.00,283,Wunderground v.1.15,2013-06-01 20:37:00,
2013-06-01 16:43:00,85.3,66.8,29.79,SW,232,0.0,0.0,54,0.00,,,0.00,207,Wunderground v.1.15,2013-06-01 20:43:00,
2013-06-01 16:48:00,84.9,66.9,29.79,SW,232,0.0,0.0,55,0.00,,,0.00,171,Wunderground v.1.15,2013-06-01 20:48:00,
2013-06-01 16:54:00,84.3,66.4,29.79,SW,232,0.0,0.0,55,0.00,,,0.00,213,Wunderground v.1.15,2013-06-01 20:54:00,
2013-06-01 16:59:00,84.1,67.2,29.79,SW,232,0.0,0.0,57,0.00,,,0.00,241,Wunderground v.1.15,2013-06-01 20:59:00,
2013-06-01 17:06:00,83.8,66.4,29.79,SW,232,0.0,0.0,56,0.00,,,0.00,257,Wunderground v.1.15,2013-06-01 21:06:00,
2013-06-01 17:11:00,84.0,67.1,29.79,South,174,0.0,0.0,57,0.00,,,0.00,167,Wunderground v.1.15,2013-06-01 21:11:00,
2013-06-01 17:17:00,84.0,66.1,29.78,South,174,0.0,0.0,55,0.00,,,0.00,304,Wunderground v.1.15,2013-06-01 21:17:00,
2013-06-01 17:22:00,83.6,66.8,29.78,South,182,0.0,2.0,57,0.00,,,0.00,183,Wunderground v.1.15,2013-06-01 21:22:00,
2013-06-01 17:28:00,83.2,66.9,29.78,South,184,0.0,2.0,58,0.00,,,0.00,137,Wunderground v.1.15,2013-06-01 21:28:00,
2013-06-01 17:33:00,83.0,66.2,29.78,SE,140,0.0,0.0,57,0.00,,,0.00,128,Wunderground v.1.15,2013-06-01 21:33:00,
2013-06-01 17:39:00,82.8,66.5,29.78,SE,144,0.0,0.0,58,0.00,,,0.00,116,Wunderground v.1.15,2013-06-01 21:39:00,
2013-06-01 17:44:00,82.6,66.3,29.78,SE,145,0.0,0.0,58,0.00,,,0.00,107,Wunderground v.1.15,2013-06-01 21:44:00,
2013-06-01 17:50:00,82.4,65.6,29.78,SE,145,0.0,0.0,57,0.00,,,0.00,107,Wunderground v.1.15,2013-06-01 21:50:00,
2013-06-01 17:55:00,82.4,66.1,29.78,SE,145,0.0,0.0,58,0.00,,,0.00,111,Wunderground v.1.15,2013-06-01 21:55:00,
2013-06-01 18:01:00,82.4,66.1,29.77,SE,146,0.0,0.0,58,0.00,,,0.00,132,Wunderground v.1.15,2013-06-01 22:01:00,
2013-06-01 18:07:00,82.4,66.6,29.77,SE,146,0.0,0.0,59,0.00,,,0.00,114,Wunderground v.1.15,2013-06-01 22:07:00,
2013-06-01 18:13:00,82.2,66.4,29.77,SE,145,0.0,0.0,59,0.00,,,0.00,105,Wunderground v.1.15,2013-06-01 22:13:00,
2013-06-01 18:18:00,82.0,66.7,29.77,SE,146,0.0,0.0,60,0.00,,,0.00,104,Wunderground v.1.15,2013-06-01 22:18:00,
2013-06-01 18:24:00,81.8,66.6,29.77,SE,146,0.0,1.0,60,0.00,,,0.00,97,Wunderground v.1.15,2013-06-01 22:24:00,
2013-06-01 18:30:00,81.8,67.0,29.76,SE,146,0.0,0.0,61,0.00,,,0.00,111,Wunderground v.1.15,2013-06-01 22:30:00,
2013-06-01 18:35:00,81.8,66.6,29.76,SE,146,0.0,0.0,60,0.00,,,0.00,93,Wunderground v.1.15,2013-06-01 22:35:00,
2013-06-01 18:41:00,81.6,66.4,29.76,SE,146,0.0,0.0,60,0.00,,,0.00,74,Wunderground v.1.15,2013-06-01 22:41:00,
2013-06-01 18:47:00,81.4,65.7,29.76,SE,145,0.0,0.0,59,0.00,,,0.00,67,Wunderground v.1.15,2013-06-01 22:47:00,
2013-06-01 18:52:00,81.2,66.0,29.76,SE,145,0.0,0.0,60,0.00,,,0.00,76,Wunderground v.1.15,2013-06-01 22:52:00,
2013-06-01 18:58:00,81.1,66.4,29.76,SE,145,0.0,0.0,61,0.00,,,0.00,83,Wunderground v.1.15,2013-06-01 22:58:00,
2013-06-01 19:03:00,80.9,66.2,29.76,SE,145,0.0,0.0,61,0.00,,,0.00,63,Wunderground v.1.15,2013-06-01 23:03:00,
2013-06-01 19:09:00,80.9,66.7,29.76,SE,146,0.0,0.0,62,0.00,,,0.00,60,Wunderground v.1.15,2013-06-01 23:09:00,
2013-06-01 19:15:00,80.7,67.4,29.75,SE,146,0.0,0.0,64,0.00,,,0.00,54,Wunderground v.1.15,2013-06-01 23:15:00,
2013-06-01 19:20:00,80.7,67.4,29.75,SE,146,0.0,0.0,64,0.00,,,0.00,37,Wunderground v.1.15,2013-06-01 23:20:00,
2013-06-01 19:26:00,80.5,67.6,29.75,SSE,149,0.0,0.0,65,0.00,,,0.00,32,Wunderground v.1.15,2013-06-01 23:26:00,
2013-06-01 19:31:00,80.1,68.2,29.76,SSE,150,0.0,1.0,67,0.00,,,0.00,25,Wunderground v.1.15,2013-06-01 23:31:00,
2013-06-01 19:37:00,79.6,67.7,29.76,SSE,150,0.0,1.0,67,0.00,,,0.00,21,Wunderground v.1.15,2013-06-01 23:37:00,
2013-06-01 19:42:00,79.2,66.4,29.76,SSE,150,0.0,0.0,65,0.00,,,0.00,19,Wunderground v.1.15,2013-06-01 23:42:00,
2013-06-01 19:48:00,79.0,65.8,29.76,SSE,150,0.0,0.0,64,0.00,,,0.00,14,Wunderground v.1.15,2013-06-01 23:48:00,
2013-06-01 19:54:00,78.8,65.6,29.76,SSE,150,0.0,0.0,64,0.00,,,0.00,11,Wunderground v.1.15,2013-06-01 23:54:00,
2013-06-01 19:59:00,78.6,65.4,29.76,SSE,150,0.0,0.0,64,0.00,,,0.00,7,Wunderground v.1.15,2013-06-01 23:59:00,
2013-06-01 20:06:00,78.5,65.8,29.76,SSE,150,0.0,0.0,65,0.00,,,0.00,5,Wunderground v.1.15,2013-06-02 00:06:00,
2013-06-01 20:11:00,78.3,66.4,29.76,SSE,150,0.0,0.0,67,0.00,,,0.00,0,Wunderground v.1.15,2013-06-02 00:11:00,
2013-06-01 20:16:00,78.1,66.2,29.75,SSE,150,0.0,0.0,67,0.00,,,0.00,0,Wunderground v.1.15,2013-06-02 00:16:00,
2013-06-01 20:21:00,77.9,66.1,29.75,SSE,150,0.0,0.0,67,0.00,,,0.00,0,Wunderground v.1.15,2013-06-02 00:21:00,
2013-06-01 20:27:00,77.4,66.0,29.75,SSE,150,0.0,0.0,68,0.00,,,0.00,0,Wunderground v.1.15,2013-06-02 00:27:00,
2013-06-01 20:32:00,77.2,65.8,29.75,SSE,150,0.0,0.0,68,0.00,,,0.00,0,Wunderground v.1.15,2013-06-02 00:32:00,
2013-06-01 20:38:00,76.8,66.3,29.75,SSE,150,0.0,0.0,70,0.00,,,0.00,0,Wunderground v.1.15,2013-06-02 00:38:00,
2013-06-01 20:44:00,76.5,66.0,29.75,SSE,150,0.0,0.0,70,0.00,,,0.00,0,Wunderground v.1.15,2013-06-02 00:44:00,
2013-06-01 20:49:00,76.3,66.2,29.75,SSE,150,0.0,0.0,71,0.00,,,0.00,0,Wunderground v.1.15,2013-06-02 00:49:00,
2013-06-01 20:55:00,76.0,66.3,29.75,SSE,150,0.0,0.0,72,0.00,,,0.00,0,Wunderground v.1.15,2013-06-02 00:55:00,
2013-06-01 21:00:00,75.6,66.3,29.75,SSE,150,0.0,0.0,73,0.00,,,0.00,0,Wunderground v.1.15,2013-06-02 01:00:00,
2013-06-01 21:06:00,75.4,66.5,29.75,SSE,150,0.0,0.0,74,0.00,,,0.00,0,Wunderground v.1.15,2013-06-02 01:06:00,
2013-06-01 21:11:00,75.3,66.8,29.75,SSE,150,0.0,0.0,75,0.00,,,0.00,0,Wunderground v.1.15,2013-06-02 01:11:00,
2013-06-01 21:16:00,75.1,66.6,29.75,SSE,150,0.0,0.0,75,0.00,,,0.00,0,Wunderground v.1.15,2013-06-02 01:16:00,
2013-06-01 21:22:00,75.1,66.6,29.75,SSE,150,0.0,0.0,75,0.00,,,0.00,0,Wunderground v.1.15,2013-06-02 01:22:00,
2013-06-01 21:28:00,74.9,66.8,29.75,SSE,150,0.0,0.0,76,0.00,,,0.00,0,Wunderground v.1.15,2013-06-02 01:28:00,
2013-06-01 21:33:00,74.9,66.8,29.76,SSE,150,0.0,0.0,76,0.00,,,0.00,0,Wunderground v.1.15,2013-06-02 01:33:00,
2013-06-01 21:39:00,74.7,66.6,29.76,SSE,150,0.0,0.0,76,0.00,,,0.00,0,Wunderground v.1.15,2013-06-02 01:39:00,
2013-06-01 21:44:00,74.7,66.6,29.76,SSE,150,0.0,0.0,76,0.00,,,0.00,0,Wunderground v.1.15,2013-06-02 01:44:00,
2013-06-01 21:50:00,74.6,66.9,29.76,SSE,150,0.0,0.0,77,0.00,,,0.00,0,Wunderground v.1.15,2013-06-02 01:50:00,
2013-06-01 21:56:00,74.6,66.5,29.76,SSE,150,0.0,0.0,76,0.00,,,0.00,0,Wunderground v.1.15,2013-06-02 01:56:00,
2013-06-01 22:01:00,74.6,66.1,29.77,SSE,150,0.0,0.0,75,0.00,,,0.00,0,Wunderground v.1.15,2013-06-02 02:01:00,
2013-06-01 22:07:00,74.6,66.1,29.77,SSE,150,0.0,0.0,75,0.00,,,0.00,0,Wunderground v.1.15,2013-06-02 02:07:00,
2013-06-01 22:12:00,74.7,66.2,29.77,SSE,150,0.0,0.0,75,0.00,,,0.00,0,Wunderground v.1.15,2013-06-02 02:12:00,
2013-06-01 22:17:00,74.9,66.4,29.77,SSE,150,0.0,1.0,75,0.00,,,0.00,0,Wunderground v.1.15,2013-06-02 02:17:00,
2013-06-01 22:23:00,75.3,67.2,29.77,North,0,0.0,0.0,76,0.00,,,0.00,0,Wunderground v.1.15,2013-06-02 02:23:00,
2013-06-01 22:28:00,75.3,67.2,29.77,North,357,0.0,1.0,76,0.00,,,0.00,0,Wunderground v.1.15,2013-06-02 02:28:00,
2013-06-01 22:34:00,75.3,67.2,29.77,North,357,0.0,0.0,76,0.00,,,0.00,0,Wunderground v.1.15,2013-06-02 02:34:00,
2013-06-01 22:39:00,75.1,67.4,29.77,North,352,0.0,0.0,77,0.00,,,0.00,0,Wunderground v.1.15,2013-06-02 02:39:00,
2013-06-01 22:44:00,74.9,67.2,29.78,North,352,0.0,0.0,77,0.00,,,0.00,0,Wunderground v.1.15,2013-06-02 02:44:00,
2013-06-01 22:50:00,74.7,67.0,29.78,North,352,0.0,0.0,77,0.00,,,0.00,0,Wunderground v.1.15,2013-06-02 02:50:00,
2013-06-01 22:56:00,74.9,67.2,29.78,North,352,0.0,0.0,77,0.00,,,0.00,0,Wunderground v.1.15,2013-06-02 02:56:00,
2013-06-01 23:01:00,74.9,67.2,29.78,North,1,0.0,0.0,77,0.00,,,0.00,0,Wunderground v.1.15,2013-06-02 03:01:00,
2013-06-01 23:07:00,74.9,67.2,29.78,North,1,0.0,0.0,77,0.00,,,0.00,0,Wunderground v.1.15,2013-06-02 03:07:00,
2013-06-01 23:12:00,74.7,67.0,29.78,NNE,18,0.0,0.0,77,0.00,,,0.00,0,Wunderground v.1.15,2013-06-02 03:12:00,
2013-06-01 23:18:00,74.6,66.9,29.78,NNE,18,0.0,0.0,77,0.00,,,0.00,0,Wunderground v.1.15,2013-06-02 03:18:00,
2013-06-01 23:24:00,74.4,66.7,29.78,NNE,18,0.0,0.0,77,0.00,,,0.00,0,Wunderground v.1.15,2013-06-02 03:24:00,
2013-06-01 23:29:00,74.4,66.0,29.79,NNE,18,0.0,0.0,75,0.00,,,0.00,0,Wunderground v.1.15,2013-06-02 03:29:00,
2013-06-01 23:35:00,74.2,65.0,29.79,NNE,17,0.0,2.0,73,0.00,,,0.00,0,Wunderground v.1.15,2013-06-02 03:35:00,
2013-06-01 23:41:00,74.6,64.2,29.79,NNE,17,0.0,0.0,70,0.00,,,0.00,0,Wunderground v.1.15,2013-06-02 03:41:00,
2013-06-01 23:46:00,74.7,64.3,29.78,NNE,17,0.0,0.0,70,0.00,,,0.00,0,Wunderground v.1.15,2013-06-02 03:46:00,
2013-06-01 23:52:00,74.6,64.2,29.78,ESE,122,0.0,2.0,70,0.00,,,0.00,0,Wunderground v.1.15,2013-06-02 03:52:00,
2013-06-01 23:57:00,74.6,64.2,29.78,South,177,0.0,2.0,70,0.00,,,0.00,0,Wunderground v.1.15,2013-06-02 03:57:00,